timestamp,wind_dir_avg,wind_spd_avg,wind_spd_max_dir,wind_spd_gust,battery_voltage,lat,long
2023-06-17 00:04:00+00:00,35.0,5.95,34.0,6.85,12.73,47.59359,-54.27349
2023-06-17 00:14:01+00:00,34.0,5.74,33.0,6.53,12.41,47.59359,-54.27349
2023-06-17 00:24:01+00:00,35.0,5.57,35.0,6.3,12.41,47.59359,-54.27349
2023-06-17 00:34:01+00:00,33.0,5.53,34.0,6.46,12.41,47.59359,-54.27349
2023-06-17 00:44:01+00:00,40.0,5.53,39.0,6.28,12.41,47.59359,-54.27349
2023-06-17 00:54:01+00:00,38.0,5.06,41.0,5.77,12.41,47.59359,-54.27349
2023-06-17 01:04:01+00:00,32.0,5.7,35.0,6.2,12.41,47.59359,-54.27349
2023-06-17 01:14:00+00:00,31.0,5.26,31.0,5.79,12.41,47.59359,-54.27349
2023-06-17 01:24:00+00:00,33.0,5.57,33.0,6.03,12.41,47.59359,-54.27349
2023-06-17 01:34:00+00:00,33.0,5.51,30.0,6.02,12.41,47.59359,-54.27349
2023-06-17 01:44:00+00:00,38.0,5.43,40.0,5.92,12.41,47.59359,-54.27349
2023-06-17 01:54:00+00:00,39.0,5.26,38.0,5.9,12.41,47.59359,-54.27349
2023-06-17 02:04:00+00:00,39.0,5.04,42.0,5.46,12.41,47.59359,-54.27349
2023-06-17 02:14:00+00:00,47.0,4.99,49.0,5.61,12.41,47.59359,-54.27349
2023-06-17 02:24:00+00:00,46.0,5.36,46.0,6.02,12.41,47.59359,-54.27349
2023-06-17 02:34:00+00:00,43.0,5.46,46.0,6.34,12.41,47.59359,-54.27349
2023-06-17 02:44:00+00:00,39.0,5.45,43.0,6.12,12.41,47.59359,-54.27349
2023-06-17 02:54:00+00:00,39.0,5.15,35.0,5.81,12.41,47.59359,-54.27349
2023-06-17 03:04:00+00:00,38.0,5.02,38.0,5.47,12.41,47.59359,-54.27349
2023-06-17 03:14:00+00:00,36.0,5.32,28.0,6.64,12.33,47.59359,-54.27349
2023-06-17 03:24:00+00:00,38.0,5.12,42.0,5.55,12.33,47.59359,-54.27349
2023-06-17 03:34:00+00:00,38.0,5.28,41.0,5.68,12.33,47.59359,-54.27349
2023-06-17 03:44:00+00:00,40.0,4.73,37.0,5.27,12.33,47.59359,-54.27349
2023-06-17 03:54:00+00:00,46.0,4.34,55.0,5.36,12.33,47.59359,-54.27349
2023-06-17 04:04:00+00:00,44.0,4.1,42.0,4.59,12.33,47.59359,-54.27349
2023-06-17 04:14:01+00:00,51.0,3.74,40.0,4.26,12.33,47.59359,-54.27349
2023-06-17 04:24:01+00:00,53.0,3.87,52.0,4.2,12.33,47.59359,-54.27349
2023-06-17 04:34:01+00:00,57.0,3.59,57.0,3.97,12.33,47.59359,-54.27349
2023-06-17 04:44:01+00:00,63.0,4.25,73.0,5.57,12.33,47.59359,-54.27349
2023-06-17 04:54:01+00:00,58.0,4.04,63.0,5.64,12.33,47.59359,-54.27349
2023-06-17 05:04:01+00:00,62.0,4.32,71.0,5.5,12.33,47.59359,-54.27349
2023-06-17 05:14:01+00:00,66.0,3.94,75.0,5.7,12.33,47.59359,-54.27349
2023-06-17 05:24:01+00:00,70.0,3.4,76.0,4.67,12.33,47.59359,-54.27349
2023-06-17 05:34:01+00:00,70.0,3.46,75.0,5.72,12.33,47.59359,-54.27349
2023-06-17 05:44:01+00:00,70.0,3.66,76.0,5.95,12.33,47.59359,-54.27349
2023-06-17 05:54:01+00:00,64.0,4.1,73.0,5.85,12.33,47.59359,-54.27349
2023-06-17 06:04:01+00:00,51.0,2.36,72.0,4.44,12.33,47.59359,-54.27349
2023-06-17 06:14:00+00:00,42.0,2.44,64.0,4.29,12.25,47.59359,-54.27349
2023-06-17 06:24:00+00:00,41.0,1.98,57.0,2.78,12.25,47.59359,-54.27349
2023-06-17 06:34:00+00:00,52.0,3.43,64.0,4.86,12.25,47.59359,-54.27349
2023-06-17 06:44:00+00:00,36.0,2.24,54.0,3.41,12.25,47.59359,-54.27349
2023-06-17 06:54:00+00:00,38.0,1.75,37.0,1.93,12.25,47.59359,-54.27349
2023-06-17 07:04:00+00:00,52.0,2.63,65.0,3.81,12.25,47.59359,-54.27349
2023-06-17 07:14:00+00:00,39.0,1.97,43.0,2.21,12.25,47.59359,-54.27349
2023-06-17 07:24:00+00:00,53.0,2.83,68.0,4.36,12.25,47.59359,-54.27349
2023-06-17 07:34:00+00:00,60.0,3.42,71.0,5.14,12.25,47.59359,-54.27349
2023-06-17 07:44:00+00:00,62.0,4.21,72.0,5.68,12.25,47.59359,-54.27349
2023-06-17 07:54:00+00:00,64.0,3.88,68.0,5.17,12.25,47.59359,-54.27349
2023-06-17 08:04:00+00:00,66.0,2.67,72.0,3.94,12.25,47.59359,-54.27349
2023-06-17 08:14:00+00:00,61.0,1.69,68.0,2.59,12.17,47.59359,-54.27349
2023-06-17 08:24:00+00:00,46.0,2.01,55.0,2.68,12.17,47.59359,-54.27349
2023-06-17 08:34:00+00:00,55.0,2.02,61.0,2.83,12.17,47.59359,-54.27349
2023-06-17 08:44:00+00:00,62.0,1.95,71.0,2.91,12.17,47.59359,-54.27349
2023-06-17 08:54:00+00:00,56.0,2.33,65.0,3.06,12.17,47.59359,-54.27349
2023-06-17 09:04:00+00:00,60.0,3.56,69.0,4.55,12.17,47.59359,-54.27349
2023-06-17 09:14:01+00:00,58.0,3.25,67.0,4.68,12.25,47.59359,-54.27349
2023-06-17 09:24:01+00:00,61.0,3.1,71.0,4.63,12.25,47.59359,-54.27349
2023-06-17 09:34:01+00:00,57.0,2.46,64.0,3.27,12.25,47.59359,-54.27349
2023-06-17 09:44:01+00:00,65.0,2.66,73.0,3.97,12.25,47.59359,-54.27349
2023-06-17 09:54:01+00:00,63.0,3.09,69.0,4.63,12.25,47.59359,-54.27349
2023-06-17 10:04:01+00:00,56.0,2.28,69.0,3.9,12.25,47.59359,-54.27349
2023-06-17 10:14:01+00:00,51.0,2.0,70.0,2.78,12.73,47.59359,-54.27349
2023-06-17 10:24:01+00:00,45.0,1.75,50.0,2.12,12.73,47.59359,-54.27349
2023-06-17 10:34:01+00:00,49.0,1.28,46.0,1.53,12.73,47.59359,-54.27349
2023-06-17 10:44:01+00:00,32.0,1.64,33.0,1.92,12.73,47.59359,-54.27349
2023-06-17 10:54:01+00:00,31.0,1.36,30.0,1.51,12.73,47.59359,-54.27349
2023-06-17 11:04:01+00:00,35.0,1.39,38.0,1.51,12.73,47.59359,-54.27349
2023-06-17 11:14:00+00:00,37.0,1.09,33.0,1.29,13.21,47.59359,-54.27349
2023-06-17 11:24:00+00:00,38.0,0.99,40.0,1.15,13.21,47.59359,-54.27349
2023-06-17 11:34:00+00:00,38.0,0.76,36.0,1.08,13.21,47.59359,-54.27349
2023-06-17 11:44:00+00:00,41.0,1.06,37.0,1.2,13.21,47.59359,-54.27349
2023-06-17 11:54:00+00:00,50.0,1.39,50.0,1.55,13.21,47.59359,-54.27349
2023-06-17 12:04:00+00:00,65.0,1.06,58.0,1.43,13.21,47.59359,-54.27349
2023-06-17 12:14:00+00:00,52.0,0.51,30.0,1.04,13.53,47.59359,-54.27349
2023-06-17 12:24:00+00:00,163.0,0.39,162.0,0.72,13.53,47.59359,-54.27349
2023-06-17 12:34:00+00:00,162.0,0.74,157.0,0.81,13.53,47.59359,-54.27349
2023-06-17 12:44:00+00:00,197.0,0.26,184.0,0.66,13.53,47.59359,-54.27349
2023-06-17 12:54:00+00:00,246.0,0.55,252.0,0.68,13.53,47.59359,-54.27349
2023-06-17 13:04:00+00:00,280.0,0.88,291.0,1.03,13.53,47.59359,-54.27349
2023-06-17 13:14:00+00:00,261.0,1.18,266.0,1.56,13.53,47.59359,-54.27349
2023-06-17 13:24:00+00:00,252.0,1.25,250.0,1.34,13.53,47.59359,-54.27349
2023-06-17 13:34:00+00:00,268.0,1.29,268.0,1.44,13.53,47.59359,-54.27349
2023-06-17 13:44:00+00:00,273.0,1.42,270.0,2.46,13.53,47.59359,-54.27349
2023-06-17 13:54:00+00:00,254.0,0.89,249.0,0.98,13.53,47.59359,-54.27349
2023-06-17 14:04:00+00:00,257.0,1.2,265.0,1.3,13.53,47.59359,-54.27349
2023-06-17 14:14:00+00:00,239.0,1.18,235.0,1.31,13.6,47.59359,-54.27349
2023-06-17 14:24:00+00:00,233.0,0.65,228.0,0.76,13.6,47.59359,-54.27349
2023-06-17 14:34:00+00:00,223.0,0.64,223.0,0.73,13.6,47.59359,-54.27349
2023-06-17 14:44:00+00:00,263.0,0.75,264.0,0.97,13.6,47.59359,-54.27349
2023-06-17 14:54:00+00:00,244.0,1.24,244.0,1.5,13.6,47.59359,-54.27349
2023-06-17 15:04:00+00:00,258.0,0.87,256.0,0.97,13.6,47.59359,-54.27349
2023-06-17 15:14:00+00:00,227.0,0.32,238.0,0.57,13.68,47.59359,-54.27349
2023-06-17 15:24:00+00:00,198.0,0.93,201.0,1.25,13.68,47.59359,-54.27349
2023-06-17 15:34:00+00:00,214.0,1.53,216.0,1.84,13.68,47.59359,-54.27349
2023-06-17 15:44:00+00:00,223.0,2.49,231.0,3.37,13.68,47.59359,-54.27349
2023-06-17 15:54:00+00:00,234.0,2.21,244.0,3.26,13.68,47.59359,-54.27349
2023-06-17 16:04:00+00:00,247.0,3.49,252.0,4.62,13.68,47.59359,-54.27349
2023-06-17 16:14:00+00:00,239.0,3.26,245.0,4.09,14.24,47.59359,-54.27349
2023-06-17 16:24:00+00:00,237.0,2.92,241.0,3.19,14.24,47.59359,-54.27349
2023-06-17 16:34:00+00:00,226.0,3.19,227.0,3.41,14.24,47.59359,-54.27349
2023-06-17 16:44:00+00:00,216.0,3.7,215.0,4.06,14.24,47.59359,-54.27349
2023-06-17 16:54:00+00:00,219.0,3.13,223.0,3.53,14.24,47.59359,-54.27349
2023-06-17 17:04:00+00:00,218.0,2.4,224.0,2.61,14.24,47.59359,-54.27349
2023-06-17 17:14:00+00:00,217.0,2.84,218.0,3.3,13.68,47.59359,-54.27349
2023-06-17 17:24:00+00:00,208.0,3.33,214.0,3.59,13.68,47.59359,-54.27349
2023-06-17 17:34:00+00:00,209.0,4.59,210.0,4.93,13.68,47.59359,-54.27349
2023-06-17 17:44:00+00:00,219.0,3.26,216.0,3.55,13.68,47.59359,-54.27349
2023-06-17 17:54:00+00:00,212.0,3.15,216.0,3.32,13.68,47.59359,-54.27349
2023-06-17 18:04:00+00:00,209.0,3.34,211.0,3.53,13.68,47.59359,-54.27349
2023-06-17 18:14:01+00:00,222.0,2.2,221.0,2.28,13.76,47.59359,-54.27349
2023-06-17 18:24:01+00:00,204.0,2.26,203.0,2.4,13.76,47.59359,-54.27349
2023-06-17 18:34:01+00:00,194.0,2.68,195.0,2.79,13.76,47.59359,-54.27349
2023-06-17 18:44:01+00:00,198.0,4.24,200.0,4.39,13.76,47.59359,-54.27349
2023-06-17 18:54:01+00:00,205.0,3.68,205.0,3.86,13.76,47.59359,-54.27349
2023-06-17 19:04:01+00:00,197.0,3.55,196.0,3.66,13.76,47.59359,-54.27349
2023-06-17 19:14:00+00:00,209.0,4.43,209.0,4.56,13.68,47.59359,-54.27349
2023-06-17 19:24:00+00:00,203.0,4.5,203.0,4.58,13.68,47.59359,-54.27349
2023-06-17 19:34:00+00:00,205.0,3.56,207.0,3.79,13.68,47.59359,-54.27349
2023-06-17 19:44:00+00:00,210.0,3.8,211.0,3.86,13.68,47.59359,-54.27349
2023-06-17 19:54:00+00:00,227.0,3.24,220.0,3.67,13.68,47.59359,-54.27349
2023-06-17 20:04:00+00:00,230.0,2.62,227.0,2.86,13.68,47.59359,-54.27349
2023-06-17 20:14:00+00:00,227.0,2.27,227.0,2.49,13.68,47.59359,-54.27349
2023-06-17 20:24:00+00:00,222.0,2.54,222.0,2.86,13.68,47.59359,-54.27349
2023-06-17 20:34:00+00:00,218.0,1.96,216.0,2.22,13.68,47.59359,-54.27349
2023-06-17 20:44:00+00:00,211.0,1.68,213.0,1.81,13.68,47.59359,-54.27349
2023-06-17 20:54:00+00:00,232.0,1.56,233.0,1.76,13.68,47.59359,-54.27349
2023-06-17 21:04:00+00:00,254.0,1.33,257.0,1.44,13.68,47.59359,-54.27349
2023-06-17 21:14:01+00:00,251.0,1.41,252.0,1.46,13.44,47.59359,-54.27349
2023-06-17 21:24:01+00:00,249.0,2.15,248.0,2.33,13.44,47.59359,-54.27349
2023-06-17 21:34:01+00:00,206.0,2.25,209.0,2.36,13.44,47.59359,-54.27349
2023-06-17 21:44:01+00:00,209.0,2.59,210.0,2.66,13.44,47.59359,-54.27349
2023-06-17 21:54:01+00:00,221.0,2.45,223.0,2.59,13.44,47.59359,-54.27349
2023-06-17 22:04:01+00:00,39.0,0.22,35.0,0.65,13.44,47.59359,-54.27349
2023-06-17 22:14:00+00:00,195.0,1.71,202.0,1.91,13.21,47.59359,-54.27349
2023-06-17 22:24:00+00:00,201.0,0.43,210.0,0.7,13.21,47.59359,-54.27349
2023-06-17 22:34:00+00:00,53.0,1.01,56.0,1.19,13.21,47.59359,-54.27349
2023-06-17 22:44:00+00:00,37.0,1.44,35.0,1.7,13.21,47.59359,-54.27349
2023-06-17 22:54:00+00:00,18.0,0.97,21.0,1.5,13.21,47.59359,-54.27349
2023-06-17 23:04:00+00:00,38.0,0.94,35.0,1.09,13.21,47.59359,-54.27349
2023-06-17 23:14:01+00:00,24.0,1.17,26.0,1.28,12.97,47.59359,-54.27349
2023-06-17 23:24:01+00:00,25.0,1.76,27.0,2.08,12.97,47.59359,-54.27349
2023-06-17 23:34:01+00:00,18.0,2.09,20.0,2.34,12.97,47.59359,-54.27349
2023-06-17 23:44:01+00:00,16.0,1.18,19.0,1.38,12.97,47.59359,-54.27349
2023-06-17 23:54:01+00:00,17.0,1.57,18.0,1.85,12.97,47.59359,-54.27349
